Location: *
(51.1248°S, 108.4023°W)
Time: 04:35:59
(UTC+00:00)

Cosmos 1544 - Pass Details

Date: 15 June 2021
Orbit: 469 x 488 km, 82.5° (Epoch: 31 July)

Event Time Altitude Azimuth Distance (km) Brightness Sun altitude
Exits shadow 13:19:14 40° 273° (W) 720 3.4 -17.2°
Maximum altitude 13:19:15 40° 274° (W) 720 3.4 -17.2°
Drops below altitude 10° 13:22:40 10° 344° (NNW) 1,654 5.8 -16.7°
Sets 13:24:48 0° 351° (N) 2,525 6.8 -16.4°
